When you browse on this site, cookies collect data to enhance your experience and personalize the content and advertising you see.
Visit our Privacy Policy to learn more. By continuing to use the site, you agree to this use of cookies and data.
  • In Hungary
  • List of Countries
  • For 7 days
  • Water Temperature
  • Satellite Maps
  • Weather Map
  • News
  • Weather Widgets
  • user-avatar
    Login

    Hourly Weather Kalkanata

    Today, 14 December, Friday

    Time Temperature Precipitation Wind Pressure Humidity
    00:00 +10°C° 0 mm 4 mps 734 mmHg 34%
    01:00 +10°C° 0 mm 4 mps 734 mmHg 34%
    02:00 +10°C° 0 mm 4 mps 734 mmHg 33%
    03:00 +10°C° 0 mm 4 mps 734 mmHg 33%
    04:00 +10°C° 0 mm 4 mps 734 mmHg 32%
    05:00 +10°C° 0 mm 4 mps 734 mmHg 32%
    06:00 +8°C° 0 mm 4 mps 734 mmHg 32%
    07:00 +8°C° 0 mm 4 mps 735 mmHg 31%
    08:00 +11°C° 0 mm 4 mps 735 mmHg 29%
    09:00 +13°C° 0 mm 4 mps 735 mmHg 26%
    10:00 +14°C° 0 mm 4 mps 735 mmHg 23%
    11:00 +15°C° 0 mm 4 mps 735 mmHg 21%
    12:00 +15°C° 0 mm 4 mps 735 mmHg 20%
    13:00 +16°C° 0 mm 5 mps 735 mmHg 18%
    14:00 +15°C° 0 mm 4 mps 735 mmHg 20%
    15:00 +14°C° 0 mm 3 mps 735 mmHg 23%
    16:00 +14°C° 0 mm 2 mps 735 mmHg 25%
    17:00 +13°C° 0 mm 2 mps 736 mmHg 27%
    18:00 +13°C° 0 mm 2 mps 736 mmHg 30%
    19:00 +12°C° 0 mm 2 mps 736 mmHg 32%
    20:00 +10°C° 0 mm 2 mps 737 mmHg 35%
    21:00 +10°C° 0 mm 2 mps 737 mmHg 37%
    22:00 +10°C° 0 mm 1 mps 737 mmHg 40%
    23:00 +10°C° 0 mm 1 mps 737 mmHg 42%

    Tomorrow, 15 December, Saturday

    Time Temperature Precipitation Wind Pressure Humidity
    00:00 +9°C° 0 mm 1 mps 737 mmHg 44%
    01:00 +9°C° 0 mm 1 mps 737 mmHg 46%
    02:00 +7°C° 0 mm 2 mps 737 mmHg 47%
    03:00 +7°C° 0 mm 2 mps 737 mmHg 48%
    04:00 +7°C° 0 mm 2 mps 738 mmHg 49%
    05:00 +7°C° 0 mm 2 mps 738 mmHg 47%
    06:00 +7°C° 0 mm 2 mps 738 mmHg 46%
    07:00 +7°C° 0 mm 2 mps 738 mmHg 44%
    08:00 +8°C° 0 mm 3 mps 738 mmHg 39%
    09:00 +10°C° 0 mm 3 mps 738 mmHg 34%
    10:00 +11°C° 0 mm 3 mps 738 mmHg 29%
    11:00 +12°C° 0 mm 3 mps 737 mmHg 29%
    12:00 +13°C° 0 mm 4 mps 737 mmHg 28%
    13:00 +13°C° 0 mm 4 mps 737 mmHg 27%
    14:00 +12°C° 0 mm 3 mps 737 mmHg 32%
    15:00 +12°C° 0 mm 3 mps 737 mmHg 38%
    16:00 +12°C° 0 mm 2 mps 737 mmHg 43%
    17:00 +10°C° 0 mm 2 mps 737 mmHg 48%
    18:00 +9°C° 0 mm 2 mps 738 mmHg 53%
    19:00 +8°C° 0 mm 2 mps 738 mmHg 59%
    20:00 +7°C° 0 mm 2 mps 738 mmHg 62%
    21:00 +7°C° 0 mm 2 mps 738 mmHg 65%
    22:00 +7°C° 0 mm 2 mps 739 mmHg 68%
    23:00 +6°C° 0 mm 2 mps 739 mmHg 72%

    Day after tomorrow, 16 December, Sunday

    Time Temperature Precipitation Wind Pressure Humidity
    00:00 +6°C° 0 mm 2 mps 739 mmHg 76%
    01:00 +5°C° 0 mm 2 mps 740 mmHg 80%
    02:00 +5°C° 0 mm 2 mps 740 mmHg 83%
    03:00 +5°C° 0 mm 2 mps 740 mmHg 87%
    04:00 +4°C° 0 mm 2 mps 741 mmHg 90%
    05:00 +5°C° 0 mm 1 mps 741 mmHg 91%
    06:00 +5°C° 0 mm 1 mps 742 mmHg 92%
    07:00 +4°C° 0 mm 1 mps 742 mmHg 93%
    08:00 +5°C° 0 mm 1 mps 742 mmHg 87%
    09:00 +6°C° 0 mm 1 mps 742 mmHg 81%
    10:00 +7°C° 0 mm 1 mps 743 mmHg 74%
    11:00 +8°C° 0 mm 1 mps 742 mmHg 68%
    12:00 +8°C° 0 mm 2 mps 742 mmHg 61%
    13:00 +9°C° 0 mm 2 mps 741 mmHg 55%
    14:00 +9°C° 0 mm 2 mps 741 mmHg 56%
    15:00 +8°C° 0 mm 3 mps 741 mmHg 56%
    16:00 +8°C° 0 mm 3 mps 741 mmHg 57%
    17:00 +8°C° 0 mm 3 mps 740 mmHg 59%
    18:00 +7°C° 0 mm 3 mps 740 mmHg 61%
    19:00 +6°C° 0 mm 4 mps 740 mmHg 63%
    20:00 +6°C° 0 mm 4 mps 740 mmHg 64%
    21:00 +5°C° 0 mm 3 mps 739 mmHg 66%
    22:00 +5°C° 0 mm 3 mps 739 mmHg 68%
    23:00 +5°C° 0 mm 3 mps 738 mmHg 66%

    17 December, Monday

    Time Temperature Precipitation Wind Pressure Humidity
    00:00 +5°C° 0 mm 3 mps 738 mmHg 65%
    01:00 +6°C° 0 mm 2 mps 738 mmHg 64%
    02:00 +6°C° 0 mm 2 mps 738 mmHg 63%
    03:00 +6°C° 0 mm 2 mps 737 mmHg 63%
    04:00 +6°C° 0 mm 2 mps 737 mmHg 62%
    05:00 +6°C° 0 mm 2 mps 737 mmHg 61%
    06:00 +6°C° 0 mm 2 mps 737 mmHg 61%
    07:00 +5°C° 0 mm 2 mps 737 mmHg 60%
    08:00 +7°C° 0 mm 2 mps 737 mmHg 54%
    09:00 +9°C° 0 mm 3 mps 737 mmHg 48%
    10:00 +10°C° 0 mm 3 mps 737 mmHg 42%
    11:00 +11°C° 0 mm 4 mps 737 mmHg 40%
    12:00 +10°C° 0 mm 5 mps 737 mmHg 37%
    13:00 +11°C° 0 mm 6 mps 736 mmHg 35%
    14:00 +11°C° 0 mm 4 mps 737 mmHg 39%
    15:00 +10°C° 0 mm 3 mps 737 mmHg 42%
    16:00 +10°C° 0 mm 2 mps 737 mmHg 46%
    17:00 +9°C° 0 mm 2 mps 737 mmHg 50%
    18:00 +9°C° 0 mm 1 mps 738 mmHg 54%
    19:00 +8°C° 0 mm 1 mps 738 mmHg 58%
    20:00 +8°C° 0 mm 1 mps 738 mmHg 60%
    21:00 +7°C° 0 mm 1 mps 738 mmHg 61%
    22:00 +7°C° 0 mm 1 mps 738 mmHg 63%
    23:00 +7°C° 0 mm 1 mps 738 mmHg 64%

    18 December, Tuesday

    Time Temperature Precipitation Wind Pressure Humidity
    00:00 +7°C° 0 mm 1 mps 738 mmHg 66%
    01:00 +5°C° 0 mm 0 mps 738 mmHg 67%
    02:00 +7°C° 0 mm 1 mps 738 mmHg 66%
    03:00 +7°C° 0 mm 1 mps 738 mmHg 65%
    04:00 +6°C° 0 mm 2 mps 738 mmHg 64%
    05:00 +6°C° 0 mm 2 mps 738 mmHg 63%
    06:00 +6°C° 0 mm 2 mps 738 mmHg 62%
    07:00 +6°C° 0 mm 2 mps 738 mmHg 61%
    08:00 +8°C° 0 mm 2 mps 738 mmHg 56%
    09:00 +9°C° 0 mm 2 mps 738 mmHg 51%
    10:00 +10°C° 0 mm 2 mps 738 mmHg 46%
    11:00 +12°C° 0 mm 2 mps 737 mmHg 43%
    12:00 +13°C° 0 mm 2 mps 737 mmHg 40%
    13:00 +14°C° 0 mm 2 mps 736 mmHg 38%
    14:00 +13°C° 0 mm 2 mps 736 mmHg 40%
    15:00 +12°C° 0 mm 3 mps 735 mmHg 42%
    16:00 +11°C° 0 mm 3 mps 735 mmHg 44%
    17:00 +11°C° 0 mm 3 mps 735 mmHg 45%
    18:00 +10°C° 0 mm 3 mps 735 mmHg 46%
    19:00 +10°C° 0 mm 4 mps 734 mmHg 47%
    20:00 +10°C° 0 mm 4 mps 734 mmHg 47%
    21:00 +10°C° 0 mm 3 mps 734 mmHg 48%
    22:00 +10°C° 0 mm 3 mps 734 mmHg 48%
    23:00 +10°C° 0 mm 3 mps 733 mmHg 47%

    19 December, Wednesday

    Time Temperature Precipitation Wind Pressure Humidity
    00:00 +9°C° 0 mm 3 mps 733 mmHg 47%
    01:00 +9°C° 0 mm 3 mps 732 mmHg 46%
    02:00 +9°C° 0 mm 3 mps 732 mmHg 46%
    03:00 +9°C° 0 mm 3 mps 732 mmHg 45%
    04:00 +9°C° 0 mm 3 mps 732 mmHg 45%
    05:00 +9°C° 0 mm 3 mps 732 mmHg 45%
    06:00 +9°C° 0 mm 3 mps 732 mmHg 45%
    07:00 +9°C° 0 mm 3 mps 732 mmHg 45%
    08:00 +10°C° 0 mm 3 mps 732 mmHg 44%
    09:00 +11°C° 0 mm 3 mps 732 mmHg 42%
    10:00 +11°C° 0 mm 3 mps 732 mmHg 40%
    11:00 +13°C° 0 mm 2 mps 732 mmHg 40%
    12:00 +13°C° 0 mm 2 mps 732 mmHg 40%
    13:00 +13°C° 0 mm 2 mps 732 mmHg 40%
    14:00 +12°C° 0.1 mm 2 mps 732 mmHg 45%
    15:00 +10°C° 0.1 mm 3 mps 733 mmHg 51%
    16:00 +9°C° 0.1 mm 3 mps 733 mmHg 57%
    17:00 +9°C° 0.1 mm 3 mps 734 mmHg 60%
    18:00 +8°C° 0.1 mm 2 mps 734 mmHg 63%
    19:00 +7°C° 0.1 mm 2 mps 735 mmHg 66%
    20:00 +7°C° 0.1 mm 2 mps 735 mmHg 68%
    21:00 +7°C° 0.1 mm 2 mps 736 mmHg 70%
    22:00 +5°C° 0.1 mm 3 mps 736 mmHg 72%
    23:00 +5°C° 0.2 mm 3 mps 737 mmHg 76%
    Show more